DECAYED

OBJECT C, 53950 (Decayed)

Orbit data source: Space-Track

You're viewing an Uncataloged Satellite

Recently launched and/or uncataloged satellites may have evolving metadata. Metadata may include but not limited to: Owner, Maufacturer, Bus, Motor, and Mission.

OBJECT C, 53950 was a satellite owned by CALT (CN) in LEO that was launched on Mon, 26 Sep 2022 UTC via a CHANG ZHENG 6 launch vehicle from the Taiyaun Space Center, China (TSC). Unknown objects in Earth's orbit typically refer to objects detected orbiting the Earth but have not yet been identified or cataloged. These objects could be anything from previously untracked satellites, spent rocket stages, debris from satellite collisions, or even natural meteoroids temporarily captured by Earth's gravity. This object's orbit decayed before it could be identified.

Not visible in the next 10 days
Identifier
53950, 2022-121C
Orbit
Decayed
Country
Flag of CNCN / PRC
Related business
Manufacturer
CALT
Mission
Decayed Defense Technology
Bus & Motor
Unknown
Mass
~100 kg wet, 100 kg dry
Launch date (UTC)
2022-09-26 (3 years ago)
Launch vehicle
CHANG ZHENG 6
Launch site
Taiyaun Space Center, China (TSC)
Object type
Unknown
Shape & HBR
Box + 2 Pan, 1.0 m
Radar Cross Section
0.833 m², Large (>1 m²)

Expand to show TLE details & history
Last TLE update: 3 months ago

TLE from 3 months ago
0 OBJECT C
1 53950U 22121C   25212.07261020  .14377470  24557-5  11329-2 0  9999
2 53950  97.2781 254.9586 0006257 273.2934 147.2540 16.40232246159386
Epoch: 2025-07-31T01:44Z
TLE epoch observation values (Epoch: 2025-07-31T01:44:33.521Z)
Latitude
59.88312°
Longitude
-92.76851°
Altitude
178.886 km
Speed
7.803 km/s
True Right ascension
16h 09m 15s
True Declination
59° 43' 13"
Sunlit
Object was in daylight at epoch
Visualization orbit readout
Latitude
Unknown
Longitude
Unknown
Altitude
Unknown
Speed
Unknown
Apparent Right ascension
Unknown
Apparent Declination
Unknown
Sunlit
N/A
Visualization observer readout
Local Sidereal Time
02:35:35
Azimuth
Unknown
Elevation
Unknown
Doppler factor
Unknown
Orbital elements
Apogee altitude
166.079 km
Perigee altitude
157.894 km
Semi-major axis
6,540.124 km
Eccentricity
0.00063
Inclination
97.2781°
RAAN
254.9586°
Arg. of periapsis
273.2934°
True anomaly
147.29276°
Mean anomaly
147.254°
Eccentric anomaly
147.27338°
Mean motion
4.10359 °/min
Orbital period
87.73 mins
BSTAR
0.0011329
Loading maneuver chart data...
Computing Atmospheric mass density...
Loading historical data...
Loading historical data...
Loading historical data...
Loading historical data...
Loading historical data...
Loading historical data...
Loading historical data...
Other satellites on launch #121 in the year 2022 (2022-09-26 UTC)

Documentation

Showing up to 5 results
|